Theta_e
335 333 329 325 323 322 321 321 321 321 322 322 321 321 322 323 324 324 323 322 324 324 324 325 325 325 324 321 318 319 320 321 320 319 321 323 323 322 317 316 318 317 317 316 316 319 323 324 325 327 328 328 329 329 328 328 326 325 323 322 323 323
336 333 327 324 324 323 322 322 323 323 322 321 322 324 326 327 327 326 325 324 325 325 325 328 328 327 326 324 320 319 319 320 321 319 319 322 324 321 317 317 318 318 318 318 319 323 325 326 326 328 329 329 329 329 329 328 328 326 325 324 324 325
336 332 326 325 325 324 324 324 323 322 322 323 325 328 329 330 329 326 325 324 324 324 324 326 327 325 326 326 323 319 319 319 322 321 319 321 324 322 318 317 319 321 323 323 324 325 328 328 327 328 328 329 329 329 330 329 328 327 326 325 326 326
335 331 328 328 325 325 329 327 326 325 325 327 328 329 329 329 328 326 325 322 322 323 321 323 323 321 322 324 324 321 319 319 321 323 321 321 324 323 319 319 321 324 326 326 326 326 328 328 327 327 327 328 329 329 330 329 328 327 327 326 326 326
335 332 332 331 328 330 333 331 331 330 330 330 330 330 329 328 328 326 325 323 323 322 321 323 322 319 320 323 325 323 321 320 321 323 324 323 324 323 320 321 324 326 326 326 326 327 327 327 326 326 326 327 328 328 329 328 327 326 326 325 325 325
335 335 335 333 331 333 333 333 333 333 331 330 329 329 329 328 327 325 324 324 323 322 322 323 322 321 323 325 327 326 324 323 321 323 326 326 326 324 323 325 327 327 327 326 326 327 327 326 325 326 326 326 326 326 327 327 325 322 322 322 321 322
334 336 336 334 334 334 333 334 333 332 331 330 328 327 328 327 326 325 324 324 323 322 322 322 322 321 323 325 326 326 327 327 324 323 326 327 327 327 325 328 328 327 326 326 326 326 327 326 325 325 325 325 325 325 325 326 325 321 318 318 317 315
333 335 336 335 335 335 334 333 332 331 330 328 327 326 326 325 325 324 323 323 322 322 322 322 322 321 322 324 324 324 326 328 327 325 326 327 328 328 327 328 328 327 327 326 326 326 326 325 324 324 324 324 324 325 323 323 324 323 319 314 311 310
334 334 336 335 335 335 334 332 330 331 329 326 326 326 324 324 323 323 322 322 321 321 322 322 322 320 321 323 323 323 324 326 327 326 326 327 328 328 328 329 327 327 326 326 326 326 326 325 324 323 323 323 323 323 323 322 322 324 321 313 309 307
333 334 335 336 335 335 334 331 330 330 328 326 326 325 324 323 322 322 322 321 321 321 322 321 322 322 321 322 323 323 323 324 326 326 326 326 328 329 329 329 328 327 326 326 326 326 325 324 324 323 323 323 322 323 323 323 323 323 322 320 314 306
332 333 334 335 335 334 333 331 330 329 328 327 326 325 323 322 322 322 322 321 320 320 321 321 322 322 321 321 322 323 323 324 324 325 326 326 327 328 329 329 328 327 326 326 326 326 326 325 324 323 323 323 322 322 322 323 324 324 322 322 318 308
333 333 334 334 334 333 332 331 330 329 328 327 326 324 323 323 322 322 322 321 319 317 318 320 321 322 322 321 321 322 322 323 324 324 325 326 326 328 329 329 328 328 327 326 326 326 326 325 324 324 324 323 322 322 322 321 322 323 321 318 316 310
334 333 333 334 333 332 332 331 330 330 328 326 325 324 323 323 322 321 322 321 320 317 313 316 321 322 322 321 321 322 322 323 323 324 325 325 326 327 328 329 329 329 327 326 326 326 326 325 324 324 324 323 323 322 322 321 320 319 317 315 314 312
335 334 333 334 333 332 331 331 331 330 329 326 324 324 323 323 322 321 321 321 321 319 313 315 320 322 322 322 321 321 322 323 323 323 324 325 326 326 327 329 329 328 327 327 327 327 327 326 325 325 324 323 324 323 322 320 319 317 315 314 312 312
335 333 334 334 333 332 331 331 330 330 329 326 324 323 323 322 322 321 321 321 322 319 315 315 318 321 322 321 321 321 322 323 322 323 324 324 325 326 327 329 329 329 328 328 328 327 327 327 326 325 325 324 324 323 323 321 319 318 315 314 312 312
334 332 334 334 333 332 331 331 330 329 328 326 324 323 323 322 321 321 321 320 322 318 315 317 318 321 321 320 321 320 321 323 323 323 324 324 325 325 327 328 329 329 329 328 328 328 328 328 327 326 325 325 324 323 323 322 319 318 316 314 313 310
334 332 334 333 333 332 331 330 329 328 327 325 323 323 323 322 321 321 321 320 321 318 316 317 317 321 320 319 322 320 321 322 323 324 323 324 325 325 326 327 329 329 329 329 328 328 328 327 327 327 326 326 325 323 322 323 320 318 316 315 315 311
333 332 333 332 332 332 331 329 329 328 327 325 323 323 322 322 321 320 320 320 320 318 318 317 316 319 318 317 320 320 321 322 322 324 323 324 325 325 326 326 327 329 328 329 328 327 328 328 328 327 327 327 326 322 322 324 321 319 318 316 315 312
333 332 332 332 332 332 330 328 329 327 327 325 323 323 322 322 321 320 320 320 320 318 317 317 316 316 314 313 318 320 320 321 323 323 323 325 325 324 326 326 326 327 328 328 328 328 327 328 328 327 327 327 327 323 322 325 322 320 320 317 315 313
333 332 332 332 332 331 330 328 329 328 326 325 323 323 322 321 320 320 320 320 320 318 317 318 317 315 312 310 313 318 321 321 322 324 322 324 325 325 326 326 326 327 328 329 328 328 327 328 328 327 327 326 327 325 322 323 322 321 320 318 318 316
333 333 333 333 332 330 329 328 328 327 326 325 324 323 323 322 320 321 320 320 320 318 318 318 316 316 316 313 311 315 321 322 322 323 323 324 324 325 325 325 327 327 327 329 329 329 328 329 329 327 326 326 327 326 324 324 323 322 321 319 319 318
334 334 334 333 331 329 329 328 328 327 326 325 324 322 323 322 321 320 321 321 319 317 316 316 314 313 314 314 313 315 321 323 322 321 322 324 324 325 326 325 326 326 326 327 328 329 328 329 329 328 327 327 327 326 325 325 324 322 321 320 319 319
334 333 333 332 330 329 329 328 327 326 325 324 324 322 322 322 321 321 321 321 319 316 314 315 317 316 312 312 315 317 321 324 322 321 321 323 324 324 325 325 326 327 326 327 327 326 327 328 328 328 328 327 327 326 325 324 323 321 321 321 320 319
335 333 333 331 330 329 330 328 327 326 325 324 324 323 321 322 321 321 321 320 320 319 315 313 317 319 316 316 317 317 320 324 323 322 321 321 323 323 324 325 326 327 326 326 326 325 325 326 327 328 327 326 326 326 327 326 324 323 322 321 320 319
334 333 332 331 330 330 329 328 327 327 326 324 324 324 322 322 321 320 321 320 320 320 317 314 315 317 316 318 319 315 317 323 324 322 322 323 323 324 324 324 324 326 326 325 325 326 325 326 326 327 327 326 326 326 326 326 326 326 324 321 320 320
334 333 332 331 330 330 328 329 328 327 326 325 323 323 323 322 322 321 320 320 320 320 319 316 313 314 316 317 319 316 312 319 324 322 321 323 324 324 323 324 324 324 325 325 325 325 326 326 326 326 326 326 326 327 327 325 325 326 326 323 321 320
334 333 333 332 330 330 329 329 329 327 326 325 323 322 322 321 321 321 321 321 320 320 321 318 312 312 315 314 314 312 308 313 322 324 320 318 322 324 323 323 323 323 324 324 324 324 325 325 326 325 325 325 325 326 326 325 324 324 324 323 321 320
335 333 333 332 331 330 330 329 328 328 326 324 323 323 322 322 321 321 322 322 321 320 321 320 315 311 311 313 313 309 306 309 317 324 323 319 321 324 324 323 323 323 323 323 323 324 324 324 324 325 325 324 325 325 325 324 324 324 322 321 321 320
335 334 332 332 331 331 330 329 328 328 326 324 323 323 322 322 321 321 322 322 321 321 321 321 320 315 309 312 316 312 310 310 313 320 324 321 320 322 323 323 323 323 322 322 322 322 323 323 322 323 324 324 324 324 324 323 322 322 321 320 319 319
335 334 333 332 332 331 330 329 329 327 326 324 322 322 321 322 322 322 322 322 321 321 320 320 322 320 312 309 314 314 312 314 314 315 320 322 321 320 321 322 323 323 322 322 323 322 322 323 322 321 322 323 323 322 322 322 322 322 320 319 318 318
335 334 333 332 332 331 330 329 329 328 326 324 323 321 322 322 322 322 322 322 322 321 321 321 321 322 318 311 311 311 310 314 317 314 314 319 322 321 321 321 321 322 323 322 322 322 322 323 322 321 322 322 322 322 322 322 321 321 321 320 319 318
335 334 333 333 332 331 330 329 329 328 327 325 323 322 322 322 321 322 322 322 322 321 321 321 321 321 320 316 313 310 306 308 314 317 315 315 318 321 322 322 321 321 322 322 321 321 322 322 322 321 321 322 322 321 322 321 320 319 320 320 319 319
334 334 334 333 333 332 331 330 329 328 328 326 323 322 321 322 321 321 322 322 322 322 321 321 321 321 321 320 319 316 311 307 307 312 314 312 314 318 320 321 321 320 321 321 321 321 321 321 321 321 320 320 321 320 321 321 321 320 320 319 319 319
335 335 334 333 333 332 331 330 329 328 329 327 324 323 321 321 322 321 321 321 322 322 322 321 321 321 321 321 321 320 318 313 307 305 306 306 308 313 317 318 319 320 321 321 321 321 321 321 321 321 320 320 320 320 321 321 321 321 320 320 319 319
336 335 335 334 333 332 332 331 329 329 329 328 326 324 322 321 321 322 322 321 321 322 322 322 322 322 321 321 321 320 319 318 314 307 304 303 303 307 310 312 314 317 320 321 321 321 321 321 321 321 321 320 320 319 320 320 320 320 319 319 319 319
336 336 336 335 334 333 332 332 331 329 329 328 327 325 324 322 321 322 323 322 322 322 322 322 322 321 322 321 320 320 320 320 318 315 311 307 304 302 304 305 307 309 312 315 318 319 319 320 321 321 321 321 320 320 319 319 318 318 318 318 318 317
336 337 336 335 335 334 333 332 332 331 329 329 328 326 325 325 323 322 322 322 322 323 322 322 322 321 322 322 321 321 321 320 320 320 319 315 309 305 305 305 305 304 304 306 309 312 315 317 318 318 318 318 318 318 318 318 318 318 318 317 316 316
Wind_Speed
17 15 13 13 14 14 13 12 11 10 9 8 8 6 6 6 7 8 7 6 6 5 5 6 5 4 2 2 3 3 3 3 3 4 5 7 8 9 9 9 9 10 11 12 15 17 17 15 15 16 15 15 11 8 6 7 9 10 10 10 10 12
17 14 14 14 14 14 13 13 11 10 10 8 8 7 8 7 6 8 10 9 6 3 2 3 2 4 3 1 4 4 3 2 2 3 4 5 7 9 9 9 11 11 11 12 14 16 15 15 15 14 14 13 10 7 7 8 10 10 10 10 11 11
17 14 14 14 13 14 13 12 11 10 9 8 8 8 8 5 4 5 5 5 2 4 2 2 2 6 5 1 1 4 3 2 2 1 4 5 6 8 9 10 11 11 9 10 11 12 10 10 12 13 13 12 9 8 8 9 9 9 10 10 10 9
16 15 15 14 13 14 13 11 10 9 8 8 8 9 7 3 3 4 3 3 1 4 1 1 1 4 6 2 1 2 4 3 3 2 3 5 6 8 9 10 9 8 8 9 10 7 5 6 9 11 11 9 9 10 9 9 10 9 9 9 9 7
16 15 15 14 14 14 13 12 11 9 8 7 7 6 4 3 4 2 1 3 1 0 1 3 2 4 1 3 1 1 2 4 5 5 4 5 6 8 9 9 7 8 10 11 9 5 4 6 7 8 8 8 9 10 8 6 8 10 10 9 8 6
16 16 14 14 14 14 15 13 12 10 7 8 7 5 4 3 1 4 4 2 2 2 3 1 3 0 1 0 1 3 3 3 4 6 6 6 7 8 9 8 6 6 9 9 6 4 5 7 6 7 7 6 6 8 8 6 6 8 8 8 7 5
17 16 15 16 15 15 14 11 9 8 8 6 5 6 6 4 0 3 5 3 2 2 3 1 1 3 3 2 5 5 6 6 3 4 5 7 7 8 8 7 6 6 8 5 5 4 5 6 5 7 7 7 7 8 9 5 3 5 7 6 5 4
16 15 15 15 15 13 11 9 8 9 9 5 4 7 6 2 1 4 4 4 4 1 2 2 1 3 4 5 6 5 6 8 5 5 4 7 7 8 7 7 8 8 8 5 5 5 6 5 6 7 7 8 7 5 5 3 2 3 5 6 5 3
16 15 14 14 14 12 10 10 10 9 9 5 3 8 6 1 1 3 4 4 5 2 4 4 3 2 3 6 5 5 7 6 8 8 5 6 6 8 7 9 9 9 9 6 5 6 6 5 6 7 7 9 6 3 2 4 4 5 5 6 7 3
16 15 14 13 13 12 12 12 9 7 9 7 5 5 4 1 1 1 2 3 5 6 9 7 5 4 2 6 6 6 8 7 6 8 5 5 7 8 7 9 10 10 8 6 6 7 7 6 6 5 6 7 5 4 2 2 3 4 4 6 9 5
16 16 15 13 12 12 13 13 9 7 8 9 6 1 2 3 2 2 3 4 6 8 11 10 9 8 2 4 6 6 10 7 3 6 4 4 6 8 8 9 11 9 7 7 7 7 7 7 6 5 6 5 4 5 1 1 4 2 3 6 10 7
16 16 15 13 11 11 12 13 10 6 7 7 4 2 2 3 2 3 6 6 4 5 9 11 12 10 3 6 7 4 8 6 3 6 4 5 7 8 8 9 9 8 7 7 7 7 7 7 6 5 6 5 6 7 4 5 5 2 4 9 10 7
16 15 15 14 13 11 11 13 11 7 5 3 4 5 3 3 2 2 6 7 4 3 4 10 14 11 6 8 7 6 8 5 5 6 6 7 6 9 9 7 7 7 9 7 7 8 7 8 8 6 6 8 9 6 4 5 4 3 2 8 9 8
16 15 15 15 14 13 11 11 11 7 4 4 4 5 4 3 1 1 4 6 6 5 2 8 13 11 10 11 7 9 10 8 7 7 8 10 9 10 9 8 8 8 10 8 7 8 8 8 9 7 7 7 6 6 6 5 4 5 4 1 6 8
17 16 15 15 14 13 12 9 9 6 3 5 4 3 3 1 1 1 4 4 6 7 2 6 9 9 11 12 8 10 12 9 8 7 9 10 10 10 8 8 8 8 9 9 8 8 8 8 8 8 7 7 6 7 6 3 3 5 6 6 2 4
18 18 16 15 14 14 12 9 8 6 3 4 5 2 4 2 2 2 1 3 6 8 1 5 8 8 12 13 8 8 12 11 8 7 10 8 7 8 7 9 8 9 10 10 9 8 8 9 8 8 8 8 8 8 7 2 4 7 7 5 4 4
18 18 16 15 14 13 12 10 9 7 3 3 5 2 4 2 1 2 0 4 8 8 1 5 7 8 11 13 8 5 9 11 8 7 10 9 8 9 8 10 9 9 10 10 9 7 8 9 8 8 8 7 6 9 10 3 4 7 5 3 5 4
18 17 16 15 13 12 12 11 8 7 4 3 5 3 4 3 2 2 2 5 8 6 1 3 6 6 8 11 9 6 8 9 8 7 10 9 9 10 7 10 11 9 9 10 9 8 9 9 9 8 8 8 7 9 10 5 6 6 2 4 3 3
17 17 15 14 13 12 12 12 8 6 6 4 4 4 4 3 2 2 3 7 9 5 2 3 4 5 7 10 11 8 8 10 9 10 12 9 8 9 8 10 12 11 11 10 9 9 10 10 9 9 8 9 9 10 11 8 7 6 5 6 3 2
17 16 15 14 13 12 10 10 9 6 5 5 4 4 4 4 2 2 2 4 6 4 1 2 2 2 4 7 11 9 7 10 10 11 13 10 8 9 8 10 11 10 12 11 9 10 11 11 9 8 8 9 9 8 10 8 4 3 8 13 10 5
17 16 15 14 12 12 10 9 10 7 5 6 5 4 6 5 3 4 4 4 6 4 2 3 2 2 3 5 8 10 7 7 10 12 12 11 10 10 8 10 11 10 11 11 10 10 10 11 10 9 9 8 10 8 8 8 6 5 9 14 13 9
17 17 15 13 12 13 11 10 9 7 6 6 5 5 6 5 2 4 5 7 8 6 4 4 2 1 2 3 5 8 6 5 8 11 11 10 11 12 9 8 11 10 10 10 10 11 11 11 10 11 10 9 9 9 8 11 10 10 10 10 13 13
17 17 16 14 14 14 12 10 10 8 7 7 5 4 5 4 2 4 4 6 7 6 2 2 3 7 4 2 3 5 6 4 6 8 11 11 10 11 11 9 10 10 9 8 9 11 11 11 10 9 8 9 9 9 9 13 13 11 10 11 14 14
17 18 17 14 13 15 13 10 9 7 6 7 5 4 7 7 5 5 4 4 5 6 4 3 4 2 2 3 6 6 7 6 5 7 9 10 11 10 11 11 11 10 9 9 9 10 10 12 12 8 7 9 9 10 11 12 13 11 10 12 14 14
17 17 16 16 15 15 13 10 9 9 8 8 7 5 6 7 6 5 5 3 4 5 3 1 6 8 6 3 8 9 8 8 5 8 9 9 10 10 10 11 11 9 9 11 10 9 9 10 13 11 10 11 8 9 11 10 10 10 9 10 12 14
17 16 16 17 17 14 13 14 13 11 10 9 9 7 5 6 6 5 3 2 5 5 3 3 4 5 6 5 7 8 7 10 6 8 10 10 9 8 9 10 10 10 10 10 11 11 11 10 12 13 13 14 12 10 10 9 7 7 8 9 10 10
17 17 16 15 16 16 15 15 12 9 7 7 7 9 8 7 8 7 3 4 8 8 8 6 4 3 6 8 9 8 7 10 8 5 9 9 11 9 9 10 10 11 10 10 12 12 11 11 11 12 11 13 14 12 12 11 9 9 9 9 10 8
17 18 17 14 14 17 15 12 11 9 8 6 5 7 8 8 8 9 6 4 6 5 6 5 5 4 5 5 6 7 5 8 10 7 6 7 11 12 10 11 11 11 12 11 12 12 11 11 11 10 10 9 12 13 13 12 12 13 11 9 9 10
19 19 18 16 14 16 15 11 11 10 9 7 7 8 8 8 8 9 7 6 7 6 4 7 9 8 4 4 4 6 4 5 8 10 7 5 8 10 11 12 12 12 13 11 12 13 11 12 13 11 8 7 10 13 14 13 12 15 14 13 13 14
20 18 18 18 16 17 16 13 12 11 9 9 9 9 8 9 9 8 7 8 9 7 5 7 9 9 5 4 6 6 4 4 6 8 11 8 7 9 9 13 15 12 12 13 13 14 12 10 12 15 12 8 8 11 14 15 12 12 14 14 15 16
21 19 18 19 19 18 16 13 12 10 9 9 9 9 9 9 9 8 9 9 7 6 5 4 6 10 9 4 5 8 7 6 5 7 10 12 10 9 8 12 15 13 11 15 16 17 14 11 12 16 17 12 9 9 11 15 15 12 12 12 13 15
21 20 19 19 20 19 15 14 12 10 9 9 8 9 10 10 10 9 10 10 6 5 6 6 7 10 11 7 4 7 7 7 10 8 9 12 12 10 8 10 13 14 13 13 16 18 17 14 14 16 19 16 13 12 10 11 14 14 13 13 13 15
23 21 20 20 20 18 16 15 13 11 11 10 8 9 10 10 10 9 10 10 8 7 8 7 7 8 9 9 8 8 8 6 10 12 11 12 12 10 10 10 10 13 14 13 14 17 18 17 16 16 18 17 16 16 13 11 11 13 14 14 15 15
23 22 20 19 19 18 17 17 14 11 11 10 9 10 12 13 11 10 9 10 10 10 9 7 6 7 6 7 9 11 10 8 8 11 13 13 12 12 13 13 12 11 13 14 14 15 16 18 18 18 18 19 18 18 16 14 14 14 14 14 14 15
21 20 19 17 17 17 16 16 15 13 12 11 10 11 12 13 13 12 9 9 10 11 11 9 7 7 6 6 8 10 11 12 10 9 11 12 12 14 15 16 16 15 15 15 15 15 15 16 17 17 18 19 20 19 18 18 18 18 17 15 14 14
18 17 17 17 16 15 15 14 15 15 14 13 12 12 11 9 11 13 11 8 9 9 10 11 10 10 9 8 9 10 11 12 11 10 10 10 11 12 14 16 17 18 18 18 18 17 18 18 19 18 17 18 18 18 18 18 18 19 19 18 18 16
16 15 15 15 15 15 15 15 15 15 15 14 14 13 12 9 7 9 11 12 12 10 9 11 12 11 10 9 10 11 10 9 10 12 11 10 10 10 10 13 15 15 16 17 18 18 18 19 20 21 21 21 21 20 20 20 19 19 18 19 20 20
Wind_Direction
149 147 150 147 145 141 138 138 134 134 133 136 140 126 108 92 70 53 47 68 64 50 42 12 357 352 324 233 190 146 127 116 95 95 89 76 87 101 106 106 103 100 98 99 96 92 90 89 90 91 91 87 90 107 104 102 102 94 92 90 90 90
150 150 152 148 147 144 140 138 136 139 140 146 140 109 88 75 57 55 58 62 61 70 50 40 45 323 311 206 205 190 162 148 117 102 104 92 99 111 115 114 109 102 98 96 88 78 73 72 78 85 85 85 86 91 91 94 98 95 92 91 91 89
152 151 150 149 150 144 140 139 141 145 147 149 131 104 83 58 42 66 73 51 81 149 142 117 144 281 282 76 154 210 197 174 186 135 116 114 113 122 123 122 117 108 101 94 78 59 51 54 64 75 82 87 88 81 83 92 96 95 96 94 91 91
155 149 148 153 152 143 139 141 143 149 158 147 117 101 88 108 145 112 70 13 162 160 151 271 15 312 268 215 61 221 219 222 209 194 155 139 132 138 137 135 128 109 101 94 86 73 51 55 66 76 83 88 91 88 82 89 100 100 96 95 93 91
155 148 153 155 147 140 144 153 156 161 160 126 98 98 97 155 204 216 42 35 245 259 58 239 335 19 292 200 110 38 239 247 240 223 191 164 152 150 146 141 133 114 106 92 89 104 101 91 87 92 95 92 94 93 86 84 99 105 98 94 91 82
153 150 156 149 145 152 158 165 168 164 133 98 80 89 156 184 236 199 167 105 296 340 98 164 303 241 58 357 255 328 305 279 257 244 210 180 170 160 154 143 140 123 103 92 104 127 119 104 96 103 97 97 106 90 81 74 86 108 106 97 93 83
154 154 155 148 156 166 164 169 168 145 110 107 88 94 166 200 76 167 178 161 109 55 134 123 319 181 156 197 232 257 278 277 275 268 230 203 189 173 172 162 160 131 101 111 149 136 115 107 101 107 91 102 127 100 89 93 79 98 104 91 85 73
157 156 156 155 161 164 162 156 136 118 118 138 150 149 171 203 321 319 285 189 142 40 194 177 175 170 152 165 195 192 222 254 277 297 249 222 205 182 183 170 158 135 125 152 164 140 122 114 108 113 106 111 128 111 84 63 16 50 81 63 46 49
159 159 158 159 158 156 156 136 110 121 145 149 180 191 206 245 120 354 342 166 148 190 185 178 211 226 166 169 190 184 182 223 261 279 264 243 218 186 180 171 160 139 139 157 166 153 137 127 117 116 118 118 125 129 38 21 26 18 47 38 18 27
163 162 159 157 157 157 153 136 123 155 174 183 214 218 221 231 137 89 325 204 183 203 185 180 197 176 162 179 192 215 197 191 240 262 261 249 220 199 199 191 171 146 146 169 173 160 145 136 128 126 127 130 129 113 337 342 56 20 41 24 0 10
166 165 164 160 161 160 152 142 139 170 186 191 209 263 154 151 122 171 282 282 230 221 190 174 178 166 153 190 186 225 205 177 219 246 265 270 230 217 220 206 181 152 156 183 177 163 155 145 144 151 135 139 146 116 109 118 110 83 42 360 341 357
168 168 167 159 156 155 155 153 144 163 191 187 178 109 130 143 138 234 288 298 251 238 206 186 175 161 151 191 184 216 195 170 205 213 232 263 245 237 226 200 180 163 171 188 183 171 163 156 156 160 148 154 142 115 125 135 133 129 6 336 327 348
169 170 163 154 157 157 162 162 149 168 190 152 142 141 152 182 179 270 301 296 291 314 235 195 177 166 158 180 193 207 197 204 218 203 219 232 231 239 238 211 177 172 179 183 188 176 169 171 158 156 176 167 141 122 134 130 139 153 8 333 337 345
167 168 160 156 163 165 172 164 150 177 176 109 136 160 180 209 191 296 310 298 298 321 276 188 180 179 170 170 195 210 205 219 215 208 227 228 219 219 239 230 183 177 185 177 191 186 174 180 168 169 186 168 150 166 165 133 143 161 154 328 350 339
169 167 160 161 165 165 172 158 143 176 169 131 152 179 193 193 96 260 305 292 290 311 296 176 175 184 186 169 175 208 206 201 198 218 233 238 239 217 226 232 185 177 195 179 189 195 182 188 177 181 192 176 179 184 165 142 171 179 184 197 230 298
173 169 164 167 167 164 165 147 140 174 201 167 155 182 206 192 153 169 332 270 282 312 303 168 169 185 202 179 157 201 204 189 187 232 237 232 242 220 222 237 201 185 200 186 188 199 195 197 183 189 198 183 192 186 152 118 190 180 183 206 246 240
174 170 172 175 169 165 161 145 153 179 218 179 147 188 217 162 162 171 276 253 284 311 271 189 187 194 208 187 159 179 199 197 193 222 232 223 220 210 220 238 218 195 204 201 194 200 208 205 189 197 201 185 202 185 149 121 203 169 159 248 286 262
174 174 178 176 170 168 154 144 169 191 186 169 146 190 213 155 189 214 211 252 290 313 271 213 200 202 211 188 174 176 193 208 207 216 223 233 233 206 208 239 227 204 207 213 203 201 217 214 197 203 205 191 202 190 166 169 209 205 236 264 264 263
176 177 180 175 172 171 152 147 175 198 183 182 165 193 208 161 200 225 224 266 291 294 231 243 215 214 221 195 183 179 186 201 212 228 218 224 242 208 203 240 237 218 209 213 211 208 222 228 205 202 214 206 209 204 190 186 195 227 233 206 202 233
176 177 176 174 174 167 151 152 173 189 190 192 183 205 211 173 190 247 223 253 286 309 297 259 234 250 255 211 194 184 187 202 209 225 216 213 229 215 219 238 239 233 217 207 215 218 221 230 215 207 224 224 229 218 196 197 185 222 222 212 229 255
175 176 173 176 174 162 158 166 178 190 202 210 200 192 215 216 214 233 223 222 260 294 296 257 227 225 270 252 212 188 182 210 213 212 214 223 226 215 227 245 245 240 228 215 220 228 222 225 218 209 220 221 239 236 190 202 222 245 245 228 243 272
175 173 175 177 165 157 171 181 183 191 196 213 211 176 212 258 241 219 245 264 278 285 252 258 319 299 242 253 223 192 181 220 229 213 208 227 235 218 214 241 250 242 239 233 228 232 228 227 217 206 219 217 230 244 203 202 221 237 250 246 260 270
176 177 179 173 160 162 180 187 186 193 186 196 224 208 209 231 199 203 254 294 306 312 274 202 333 340 340 316 236 197 188 209 235 220 207 217 232 231 222 231 247 241 236 239 241 246 239 234 228 211 224 226 225 244 226 215 222 224 228 237 254 260
179 185 181 166 167 178 181 186 188 188 176 177 203 210 193 199 208 214 240 287 280 290 320 142 179 262 341 305 272 229 189 185 224 221 209 217 224 230 232 234 243 241 236 235 238 254 250 242 245 234 227 234 237 241 236 240 248 242 226 222 233 244
185 189 180 171 181 183 175 180 184 182 185 187 189 183 185 205 223 223 237 283 252 258 330 118 188 191 173 232 275 262 205 177 215 226 205 214 228 229 230 238 244 237 237 238 233 240 243 243 248 247 237 236 242 238 241 267 270 252 242 225 223 233
191 186 180 186 188 179 178 187 190 191 191 192 193 193 203 215 213 214 231 233 220 245 308 292 249 198 188 209 245 264 224 184 199 237 220 204 209 227 230 234 243 238 234 238 243 240 232 240 251 253 247 238 236 238 253 288 292 272 269 234 219 232
193 186 182 195 191 181 192 193 189 194 185 184 192 194 208 215 205 202 200 196 215 255 294 280 265 208 207 225 237 253 240 200 185 226 253 218 190 208 228 225 231 242 240 236 249 253 242 244 254 262 262 242 238 247 260 280 290 298 293 236 222 245
192 189 184 197 195 189 201 190 175 187 190 199 201 191 204 211 211 212 211 212 211 247 296 290 297 283 230 238 262 266 252 217 190 186 261 245 195 192 210 220 225 234 241 239 244 254 254 247 246 264 278 255 246 253 261 269 270 278 291 274 257 263
191 193 187 193 197 196 202 182 175 195 194 197 201 197 210 209 212 219 218 236 226 211 253 288 306 312 262 210 242 263 256 234 210 188 198 240 223 206 202 217 223 224 236 241 237 242 251 250 244 248 261 265 259 251 251 258 258 261 274 288 283 273
190 196 191 191 195 199 200 180 183 202 184 182 200 202 212 208 206 214 216 235 240 225 233 275 295 308 291 216 217 241 231 231 248 217 195 195 224 236 229 224 217 213 232 236 227 232 241 245 245 241 237 251 269 257 251 252 249 253 265 271 268 267
192 198 195 192 194 200 199 182 186 201 178 176 200 202 206 205 205 223 229 229 242 248 236 239 277 296 299 268 226 241 228 198 225 250 226 200 196 219 239 235 218 208 233 242 231 231 235 238 242 239 234 241 256 252 256 257 250 253 267 268 261 262
195 199 197 194 196 199 195 183 190 200 186 186 201 205 208 208 209 227 236 231 235 246 235 228 251 277 297 307 275 259 252 210 199 222 237 216 201 205 224 238 226 215 226 240 236 233 235 241 246 242 239 241 241 233 240 260 257 255 266 273 273 274
196 198 197 195 196 199 191 186 196 198 191 198 202 202 210 214 216 220 227 234 241 237 230 235 245 259 287 304 301 293 286 253 218 219 232 229 213 209 221 230 228 227 229 232 235 233 231 237 243 245 243 243 242 237 238 246 248 249 257 261 263 266
194 198 202 199 198 201 195 192 199 197 195 204 206 208 211 211 216 224 228 232 237 238 242 251 249 247 262 275 284 293 294 287 261 241 245 247 231 217 220 221 217 222 228 231 234 233 234 240 243 243 243 243 243 242 242 243 241 240 246 252 257 260
195 199 204 205 204 206 205 200 198 197 201 208 214 221 217 205 204 211 221 228 230 235 244 251 249 244 246 247 256 272 280 286 289 271 258 259 250 233 230 230 226 224 224 226 229 228 230 237 241 242 243 245 247 245 245 244 243 242 242 243 247 255
199 202 205 211 214 212 213 211 204 200 200 207 217 224 228 217 198 197 199 207 226 238 237 237 239 237 237 241 244 252 268 282 291 291 279 271 265 253 246 244 240 237 236 234 233 232 232 232 234 236 237 241 246 248 248 246 246 248 248 248 245 244
198 202 208 214 217 216 217 219 220 213 202 207 217 219 227 228 200 203 212 207 211 223 232 237 241 238 230 234 245 248 253 265 278 287 289 283 274 266 261 258 253 251 249 246 242 239 238 238 238 238 239 240 241 243 246 246 245 243 243 245 245 243